Estación Meteorológica Peña el Pijo (Robertgarden) [ 09/29/20 20:34:31 CEST ]

Fecha Hora Presion(HPa) Temp (°C) Humedad % Rocio (°C) Viento ( m/s) Direccion Lluvia 1Hora(mm) Lluvia 24H(mm) LLuvia Total(mm)
2020-Mar-13 01:09:02 1009.400 - - - - N     39.88
2020-Mar-13 02:10:32 1009.100 - - - - N     39.88
2020-Mar-13 03:10:25 1008.700 - - - - N     39.88
2020-Mar-13 04:10:09 1008.400 - - - - N     39.88
2020-Mar-13 05:09:31 1008.300 - - - - N     39.88
2020-Mar-13 06:09:43 1008.200 - - - - N     39.88
2020-Mar-13 07:08:54 1008.400 - - - - N     39.88
2020-Mar-13 08:09:10 1008.900 - - - - N     39.88
2020-Mar-13 09:08:50 1009.200 - - - - N     39.88
2020-Mar-13 10:09:34 1008.800 - - - - N     39.88
2020-Mar-13 11:09:07 1008.600 - - - - N     39.88
2020-Mar-13 12:09:26 1008.400 - - - - N     39.88
2020-Mar-13 13:09:25 1007.900 - - - - N     39.88
2020-Mar-13 14:09:21 1007.600 - - - - N     39.88
2020-Mar-13 15:09:07 1007.300 - - - - N     39.88
2020-Mar-13 16:09:01 1006.800 - - - - N     39.88
2020-Mar-13 17:09:34 1006.700 - - - - N     39.88
2020-Mar-13 18:09:05 1006.700 - - - - N     39.88
2020-Mar-13 19:08:54 1007.800 - - - - N     39.88
2020-Mar-13 20:08:46 1008.300 - - - - N     39.88
2020-Mar-13 21:09:50 1008.700 - - - - N     39.88
2020-Mar-13 22:09:09 1009.100 - - - - N     39.88
2020-Mar-13 23:09:07 1009.400 - - - - N     39.88

Temperatura Máxima:    Temperatura Mínima:
Presión Máxima:1009.400 Hpa    Presión Mínima:1006.700 Hpa


Volver